This is the latest recevied weather packets stored in our database for station/object WX9WTF. If no packets are shown the sender has not sent any weather packets the latest 10 day(s).
| Time | Temp. | Humidity | Pressure | Rain* | Wind** | Luminosity | Snow |
|---|---|---|---|---|---|---|---|
| 1778047106 | 8.33° C | 84% | 1016.5 hPa | 0 mm | - | 0 W/m² | - |
| 1778046803 | 8.33° C | 84% | 1016.4 hPa | 0 mm | - | 0 W/m² | - |
| 1778046500 | 8.33° C | 84% | 1016.1 hPa | 0 mm | - | 0 W/m² | - |
| 1778046196 | 8.33° C | 84% | 1015.8 hPa | 0 mm | - | 0 W/m² | - |
| 1778045893 | 8.33° C | 83% | 1015.8 hPa | 0 mm | - | 0 W/m² | - |
| 1778045592 | 8.33° C | 83% | 1016 hPa | 0 mm | - | 0 W/m² | - |
| 1778045289 | 8.33° C | 83% | 1015.6 hPa | 0 mm | - | 0 W/m² | - |
| 1778044988 | 8.89° C | 83% | 1016 hPa | 0 mm | - | 0 W/m² | - |
| 1778044685 | 8.89° C | 82% | 1016.1 hPa | 0 mm | - | 0 W/m² | - |
| 1778044381 | 8.89° C | 83% | 1015.8 hPa | 0 mm | - | 0 W/m² | - |
| 1778044079 | 8.89° C | 88% | 1015.5 hPa | 0 mm | - | 0 W/m² | - |
| 1778043777 | 8.89° C | 94% | 1015.4 hPa | 0 mm | - | 0 W/m² | - |
| 1778043472 | 8.89° C | 95% | 1015.6 hPa | 0 mm | - | 0 W/m² | - |
| 1778043170 | 8.89° C | 95% | 1015.6 hPa | 0.51 mm | - | 0 W/m² | - |
| 1778042867 | 8.33° C | 96% | 1015.1 hPa | 0.51 mm | - | 0 W/m² | - |
| 1778042565 | 7.78° C | 99% | 1015.2 hPa | 0 mm | - | 0 W/m² | - |
| 1778042261 | 8.33° C | 99% | 1015 hPa | 0 mm | - | 0 W/m² | - |
| 1778041958 | 8.33° C | 99% | 1014.9 hPa | 0 mm | - | 0 W/m² | - |
| 1778041657 | 8.33° C | 99% | 1015.1 hPa | 0 mm | - | 0 W/m² | - |
| 1778041356 | 8.33° C | 99% | 1015 hPa | 0 mm | - | 0 W/m² | - |
| 1778041053 | 8.33° C | 99% | 1014.8 hPa | 0 mm | - | 0 W/m² | - |
| 1778040750 | 8.33° C | 99% | 1014.7 hPa | 0 mm | - | 0 W/m² | - |
| 1778040449 | 8.33° C | 99% | 1014.8 hPa | 0 mm | - | 0 W/m² | - |
| 1778040144 | 8.33° C | 99% | 1014.7 hPa | 0 mm | - | 0 W/m² | - |
| 1778039841 | 8.33° C | 99% | 1014.8 hPa | 0 mm | - | 0 W/m² | - |
* Rain latest hour (hover to see other rain measurements)
** Current wind speed in m/s (hover to see current wind gust speed)